COSMOS 2251 DEB, 35012

Orbit data source: Space-Track

COSMOS 2251 DEB, 35012 is space debris in LEO originally from a launch on Wed, 16 Jun 1993 UTC launched from the Plesetsk Missile And Space Complex (PKMTR). The debris from Iridium 33, an American commercial communications satellite, has been tracked extensively since its accidental collision with the defunct Russian satellite Cosmos 2251 in 2009. This event, occurring at high speed in low Earth orbit (LEO), generated thousands of pieces of space debris, significantly increasing the risk of further collisions. The Iridium 33 debris cloud has impacted space traffic management and orbital debris mitigation strategies, making it a subject of ongoing study in space situational awareness.

Loading next visibility...
Identifier
35012, 1993-036AFZ
Orbit
LEO
Country
Flag of CISCIS
Related business
Manufacturer
Unknown
Mission
Spacecraft
Bus & Motor
Unknown
Mass
Unknown
Launch date (UTC)
1993-06-16 (32 years ago)
Launch vehicle
Unknown
Launch site
Plesetsk Missile And Space Complex (PKMTR)
Object type
Payload
Rocket body
Debris
Shape & HBR
Unknown shape, 0.1 m
Radar Cross Section
Small (<0.1 m²)

Expand to show TLE details & history
Last TLE update: 3 days ago

TLE from 3 days ago
0 COSMOS 2251 DEB
1 35012U 93036AFZ 25302.43499466  .00000723  00000-0  20492-3 0  9991
2 35012  74.0211 194.4185 0080891 344.1898  15.6734 14.45474449869211
Epoch: 2025-10-29T10:26Z
TLE epoch observation values (Epoch: 2025-10-29T10:26:23.538Z)
Latitude
-0.00009°
Longitude
-0.18778°
Altitude
687.673 km
Speed
7.542 km/s
True Right ascension
12h 57m 40s
True Declination
0° 00' 00"
Sunlit
Object was in daylight at epoch
Visualization orbit readout
Latitude
Unknown
Longitude
Unknown
Altitude
Unknown
Speed
Unknown
Apparent Right ascension
Unknown
Apparent Declination
Unknown
Sunlit
N/A
Visualization observer readout
Local Sidereal Time
01:12:24
Azimuth
Unknown
Elevation
Unknown
Doppler factor
Unknown
Orbital elements
Apogee altitude
795.646 km
Perigee altitude
680.519 km
Semi-major axis
7,116.22 km
Eccentricity
0.00809
Inclination
74.0211°
RAAN
194.4185°
Arg. of periapsis
344.1898°
True anomaly
15.92628°
Mean anomaly
15.6734°
Eccentric anomaly
15.79959°
Mean motion
3.61551 °/min
Orbital period
99.57 mins
BSTAR
0.00020492
Loading maneuver chart data...
Computing Atmospheric mass density...

Documentation

Showing up to 5 results
|